Wind_Speed
37 38 32 27 29 35 31 37 31 35 33 26 28 30 22 25 32 27 24 25 25 25 26 28 27 23 21 21 24 24 24 23 23 26 30 32 34 35 39 34 24 25 24
37 37 38 35 31 27 35 29 30 29 24 25 29 25 27 29 28 27 28 26 29 25 29 31 29 25 24 24 23 26 23 26 30 33 33 33 34 36 28 21 23 26 19
35 33 33 35 29 34 29 29 28 25 26 19 23 23 28 27 28 29 25 20 29 27 26 28 29 26 27 29 31 30 28 30 31 33 32 32 34 26 20 22 25 22 18
26 32 35 38 38 40 28 30 28 24 29 22 24 24 25 24 27 25 27 27 32 31 33 31 32 33 33 33 35 31 31 32 31 29 30 29 23 19 18 23 21 18 18
29 26 30 28 40 35 34 23 26 26 33 32 34 29 29 28 30 30 30 33 33 34 33 34 35 35 37 39 37 33 29 33 26 25 26 24 24 22 22 18 18 18 17
34 32 30 24 29 32 34 24 18 25 24 24 23 23 26 28 27 30 34 34 37 37 38 38 35 37 33 31 30 30 30 27 26 23 23 25 19 17 13 18 17 18 20
37 35 36 31 25 27 24 24 30 29 30 33 31 31 34 36 37 35 35 36 37 41 41 39 34 26 25 26 27 30 28 28 27 21 21 18 13 12 15 16 18 20 24
34 38 39 33 28 27 32 29 29 33 33 34 35 37 37 35 36 38 41 43 44 44 43 39 36 37 35 31 30 27 30 25 17 16 13 13 12 14 16 19 22 25 29
33 34 35 38 33 28 30 33 30 33 34 33 31 31 30 33 37 40 39 37 35 35 34 33 29 23 17 17 18 22 19 14 12 9 6 9 9 12 17 22 27 30 32
28 32 30 31 31 32 31 29 29 29 28 26 27 27 25 23 22 21 23 26 25 28 27 22 14 12 13 16 17 15 10 9 6 1 5 8 12 14 18 25 27 24 19
19 26 27 25 25 29 30 31 27 23 21 18 12 11 11 13 17 23 26 24 23 22 19 17 15 14 16 13 9 9 9 6 4 2 5 6 11 17 21 16 18 16 12
16 19 21 19 20 18 16 17 16 14 9 10 10 8 9 9 12 14 14 15 14 12 16 22 19 18 13 13 12 9 8 4 1 4 7 10 11 19 17 16 20 18 15
17 17 14 14 12 11 12 11 9 8 8 8 7 6 6 7 6 3 5 10 18 25 23 19 17 16 16 14 11 9 6 7 8 7 7 12 11 14 18 19 23 26 25
18 17 14 11 6 6 9 11 13 14 13 10 8 2 2 7 11 12 18 33 31 26 24 21 20 18 17 13 11 9 12 8 7 7 9 10 11 13 18 17 18 22 22
19 15 8 5 5 3 5 7 8 9 9 11 12 7 12 22 28 33 34 32 30 28 23 23 22 20 18 15 13 14 13 13 8 4 7 10 15 19 19 18 19 22 21
18 14 12 11 12 12 7 4 5 7 11 13 16 16 24 28 29 30 30 28 26 27 27 24 23 25 20 16 15 17 13 12 9 10 11 12 19 21 21 23 23 22 21
26 27 23 23 20 16 14 8 4 8 14 16 21 24 24 26 31 32 31 30 29 28 32 33 30 26 24 26 25 22 22 25 20 16 15 18 23 26 30 30 29 27 24
37 36 32 29 23 19 16 16 12 10 17 21 27 25 25 28 33 34 32 34 37 37 33 34 34 30 30 30 31 23 20 21 18 21 22 22 23 29 30 32 31 32 31
36 33 32 33 31 28 27 26 24 20 22 27 31 29 28 27 28 31 41 48 48 28 33 34 32 33 33 35 36 36 34 29 26 27 27 25 24 27 29 30 31 33 34
30 30 27 32 34 34 36 33 32 27 30 35 34 33 29 28 30 40 48 32 27 18 29 33 35 36 36 35 36 39 40 41 37 33 33 35 35 35 35 39 40 41 44
25 26 27 28 31 32 37 38 40 34 33 35 32 30 33 36 41 44 48 50 47 32 28 31 33 32 32 36 37 38 42 45 44 43 42 41 43 44 45 44 45 46 48
34 36 33 30 28 29 34 41 43 45 43 42 40 42 42 45 44 42 39 39 34 30 30 31 32 34 32 36 39 45 45 45 42 39 38 38 40 42 41 42 42 47 48
33 37 37 34 31 28 30 35 44 47 46 42 44 45 40 39 36 33 34 30 28 27 30 33 35 33 31 28 30 31 16 16 21 20 32 34 33 38 42 44 43 44 44
27 31 34 33 30 30 25 29 34 39 44 42 40 36 34 32 30 30 27 25 23 29 31 34 34 33 31 29 31 43 41 36 31 33 31 31 33 35 37 36 37 38 38
27 29 29 30 31 29 27 28 27 28 32 34 33 32 29 28 26 25 22 20 26 29 32 30 28 27 29 28 28 31 33 32 32 32 29 26 28 30 32 32 33 31 30
24 24 25 26 24 26 27 25 25 27 25 25 26 27 28 26 23 22 20 23 28 31 29 26 25 27 29 30 32 33 35 36 35 33 31 29 28 27 29 28 28 27 26
Wind_Direction
184 189 191 201 205 211 219 231 221 236 236 251 265 260 250 251 253 255 260 253 257 259 262 264 265 272 274 273 291 287 291 290 296 298 301 305 303 303 303 303 300 302 303
183 192 183 201 210 184 207 218 214 232 238 256 258 256 256 239 247 254 255 257 263 263 262 264 262 269 274 280 291 286 291 290 292 299 310 304 303 299 304 298 302 303 295
182 191 191 188 189 207 211 220 236 234 242 242 255 256 250 244 249 254 256 256 246 265 267 273 265 267 275 286 293 293 294 298 299 303 299 299 295 297 294 294 296 295 290
177 184 200 205 219 220 216 226 235 240 236 228 240 256 246 252 256 254 255 239 255 264 268 273 272 269 276 286 292 289 292 303 301 298 289 290 296 300 295 293 295 298 311
180 186 199 216 213 217 212 223 237 247 232 247 261 260 249 257 259 258 257 258 263 265 270 270 270 272 274 280 286 291 295 301 293 287 287 293 295 286 287 295 307 312 309
185 194 203 206 197 193 192 212 229 234 228 240 254 259 261 259 259 258 259 263 262 259 270 275 274 280 281 280 281 284 291 289 281 282 295 297 289 291 298 303 314 306 300
198 201 210 203 197 188 203 237 243 247 240 252 252 252 256 263 264 263 263 263 263 262 267 270 270 259 258 266 268 282 279 278 275 286 296 294 292 304 306 310 303 296 292
204 207 209 213 207 200 213 232 242 241 250 252 256 260 264 266 265 264 265 266 264 263 269 266 254 250 259 263 269 269 264 263 275 288 289 298 298 304 298 295 294 294 294
207 203 212 215 215 223 221 233 241 245 249 257 260 265 267 266 265 265 265 265 262 261 262 259 253 246 246 247 248 248 248 265 277 281 305 303 292 302 305 297 295 292 293
193 201 205 214 222 221 229 241 251 247 250 259 265 266 266 262 262 265 265 261 253 254 255 248 246 207 211 219 222 235 252 266 246 256 284 309 321 322 317 311 308 311 310
162 187 200 209 217 230 242 248 247 248 253 256 254 245 242 255 262 263 259 253 251 245 242 213 187 184 198 204 225 250 239 219 201 260 342 8 355 339 329 345 349 357 1
138 163 192 207 220 221 231 232 241 234 224 226 224 215 238 274 284 263 253 239 232 208 161 168 180 182 208 226 219 212 185 163 96 100 56 10 10 0 6 16 19 24 38
131 141 156 171 182 194 197 190 199 210 213 228 226 240 277 308 306 260 174 147 129 117 124 143 164 186 192 186 170 149 135 119 114 97 37 17 9 16 31 48 56 62 74
129 135 136 146 168 215 220 226 234 234 245 221 191 135 51 55 81 96 117 116 110 111 123 144 155 158 140 125 116 125 136 123 79 54 36 19 20 41 54 59 60 72 81
130 133 138 129 104 130 203 221 228 221 212 200 179 119 103 85 94 107 109 111 119 130 132 125 121 114 111 126 138 133 110 99 88 36 21 49 56 56 60 68 69 74 79
119 119 109 91 69 80 104 148 201 197 182 178 169 137 104 101 112 110 114 115 116 116 112 111 111 110 120 118 110 95 89 74 71 56 71 74 65 63 74 75 76 78 80
101 95 88 82 80 73 63 68 123 156 151 143 150 138 116 116 113 114 116 113 108 104 109 111 105 105 97 94 89 77 68 63 57 59 80 82 81 78 78 79 75 72 69
101 93 90 81 71 67 66 68 78 132 141 137 144 138 128 125 119 117 111 102 103 105 108 100 96 98 92 86 82 84 98 95 78 69 74 82 83 82 82 81 78 75 74
97 90 87 77 71 65 62 63 59 89 136 139 135 134 131 126 121 116 109 113 97 88 97 102 99 98 92 85 82 82 81 85 84 78 77 80 85 85 82 81 76 73 74
92 89 86 83 74 66 67 66 71 79 111 128 132 132 127 116 115 116 115 133 120 160 103 102 97 96 95 91 89 83 82 82 85 82 78 80 84 86 85 84 82 81 79
89 94 90 86 82 75 75 75 80 89 105 121 121 120 118 117 117 116 113 112 131 123 106 96 99 98 95 93 92 92 84 79 79 81 81 81 83 86 86 84 82 82 79
89 88 89 89 89 88 84 81 85 91 101 109 115 114 117 117 118 113 115 113 108 103 101 100 101 103 103 100 101 94 89 84 70 75 78 79 81 83 81 83 85 84 82
90 87 87 85 91 99 93 90 93 97 96 103 107 109 113 115 116 113 111 111 101 102 106 105 100 97 97 106 106 108 76 4 120 89 76 82 82 78 82 86 86 85 83
98 94 90 85 88 91 103 96 103 104 105 99 104 107 113 114 116 115 112 104 101 106 109 108 98 96 95 95 92 85 97 108 101 90 99 88 86 85 87 89 80 83 85
115 101 100 92 84 85 88 96 102 113 112 107 102 104 107 120 120 121 114 105 107 112 113 111 96 94 93 93 89 88 95 99 98 96 94 93 88 86 87 85 81 82 78
116 113 107 107 104 95 90 93 97 98 107 112 110 109 109 109 109 114 119 113 114 114 109 99 96 95 97 98 96 95 95 94 94 96 95 91 90 90 88 86 85 79 78
Height
10933 10939 10940 10943 10949 10952 10954 10956 10958 10957 10960 10960 10960 10961 10963 10965 10965 10966 10966 10966 10966 10966 10966 10966 10965 10964 10963 10962 10960 10959 10957 10956 10955 10953 10951 10946 10943 10939 10936 10931 10927 10923 10922
10930 10934 10938 10940 10946 10947 10951 10956 10956 10957 10958 10958 10958 10958 10959 10961 10962 10963 10963 10963 10962 10962 10962 10962 10962 10961 10961 10959 10958 10956 10955 10954 10951 10949 10946 10942 10939 10936 10932 10928 10924 10921 10920
10928 10932 10936 10940 10944 10948 10950 10953 10954 10956 10955 10955 10955 10955 10956 10958 10959 10959 10960 10960 10959 10959 10958 10959 10957 10957 10957 10956 10954 10953 10952 10951 10949 10946 10942 10938 10935 10932 10929 10925 10922 10920 10917
10929 10932 10937 10939 10942 10945 10948 10951 10952 10953 10953 10952 10952 10953 10953 10954 10955 10955 10955 10956 10955 10955 10955 10955 10954 10954 10953 10952 10951 10950 10949 10948 10947 10944 10939 10936 10933 10930 10926 10923 10920 10918 10915
10925 10929 10932 10936 10939 10943 10947 10950 10949 10950 10950 10949 10949 10950 10951 10950 10951 10951 10950 10950 10951 10951 10951 10951 10951 10950 10948 10947 10946 10945 10945 10944 10942 10940 10936 10933 10930 10927 10924 10921 10918 10915 10912
10924 10926 10930 10932 10936 10940 10943 10945 10948 10946 10947 10947 10946 10946 10946 10946 10946 10946 10945 10945 10946 10947 10948 10947 10947 10945 10944 10941 10942 10942 10941 10941 10939 10936 10933 10931 10929 10926 10923 10919 10916 10913 10910
10922 10924 10928 10930 10934 10939 10942 10943 10942 10942 10942 10942 10943 10943 10942 10942 10942 10941 10941 10941 10941 10942 10943 10944 10943 10941 10940 10939 10939 10939 10938 10937 10935 10933 10931 10929 10927 10924 10921 10917 10913 10910 10907
10919 10921 10925 10929 10933 10937 10937 10939 10938 10938 10939 10939 10939 10938 10937 10937 10936 10935 10935 10934 10934 10935 10937 10937 10938 10937 10938 10937 10937 10937 10936 10934 10933 10932 10930 10928 10927 10923 10919 10916 10912 10908 10904
10914 10919 10923 10928 10932 10934 10936 10936 10936 10936 10936 10935 10935 10934 10932 10931 10931 10929 10928 10927 10927 10928 10928 10929 10930 10932 10934 10935 10935 10934 10933 10933 10933 10931 10930 10928 10924 10922 10918 10913 10908 10903 10899
10911 10917 10922 10927 10930 10932 10933 10934 10933 10933 10933 10933 10931 10929 10928 10926 10925 10924 10923 10922 10923 10922 10923 10923 10926 10929 10932 10933 10933 10933 10933 10934 10933 10931 10929 10926 10924 10921 10916 10911 10905 10899 10895
10912 10917 10924 10927 10929 10930 10931 10930 10930 10930 10930 10929 10927 10926 10925 10924 10922 10920 10919 10918 10918 10918 10920 10922 10926 10929 10932 10932 10933 10934 10934 10934 10932 10931 10930 10928 10925 10920 10915 10909 10903 10897 10894
10916 10921 10924 10927 10928 10929 10929 10927 10927 10927 10926 10926 10926 10926 10925 10922 10919 10916 10914 10913 10914 10915 10917 10923 10927 10930 10931 10932 10933 10935 10936 10935 10934 10933 10931 10929 10926 10921 10915 10910 10904 10898 10895
10920 10923 10925 10926 10927 10928 10927 10926 10925 10925 10926 10927 10927 10926 10924 10920 10916 10912 10912 10914 10914 10916 10920 10925 10928 10930 10932 10933 10936 10938 10938 10936 10935 10934 10932 10930 10926 10922 10917 10913 10909 10904 10901
10924 10926 10927 10927 10927 10926 10926 10925 10925 10925 10926 10926 10927 10927 10925 10920 10915 10914 10915 10917 10919 10923 10926 10928 10930 10933 10936 10939 10940 10939 10938 10938 10937 10936 10934 10930 10927 10923 10919 10916 10914 10910 10908
10928 10929 10929 10928 10928 10926 10924 10923 10923 10923 10924 10925 10928 10930 10928 10924 10921 10921 10922 10923 10925 10927 10931 10935 10938 10939 10941 10941 10941 10941 10942 10941 10939 10937 10935 10932 10929 10925 10922 10920 10918 10915 10914
10932 10932 10931 10930 10928 10925 10923 10921 10920 10921 10922 10925 10929 10933 10933 10930 10928 10928 10929 10930 10933 10935 10938 10941 10942 10943 10944 10945 10945 10945 10944 10943 10941 10939 10937 10934 10932 10929 10926 10924 10922 10920 10919
10935 10936 10933 10932 10929 10926 10925 10922 10920 10920 10923 10925 10930 10935 10936 10935 10934 10935 10936 10939 10942 10944 10945 10947 10947 10948 10950 10949 10949 10949 10948 10947 10945 10942 10940 10938 10937 10934 10931 10929 10927 10925 10923
10942 10941 10939 10935 10932 10930 10927 10924 10921 10920 10924 10928 10933 10938 10940 10940 10940 10941 10944 10953 10961 10958 10955 10953 10953 10954 10955 10954 10953 10953 10952 10952 10951 10948 10946 10945 10942 10939 10936 10934 10932 10931 10929
10946 10944 10944 10941 10938 10936 10930 10927 10923 10922 10925 10931 10937 10941 10944 10946 10948 10949 10957 10952 10954 10981 10969 10961 10960 10960 10962 10962 10960 10959 10958 10958 10958 10957 10954 10951 10948 10945 10943 10940 10938 10937 10935
10952 10950 10949 10948 10946 10944 10939 10934 10931 10930 10931 10936 10942 10946 10950 10952 10954 10958 10965 10940 10939 10998 10983 10969 10968 10969 10969 10967 10966 10965 10964 10963 10962 10963 10964 10960 10955 10951 10949 10948 10946 10944 10942
10958 10955 10955 10954 10953 10952 10950 10947 10943 10941 10943 10946 10951 10953 10956 10958 10962 10966 10974 10979 10992 10990 10983 10975 10975 10976 10975 10973 10973 10972 10973 10974 10974 10972 10972 10972 10966 10961 10958 10957 10955 10952 10950
10965 10961 10959 10960 10959 10959 10960 10958 10956 10954 10955 10956 10959 10963 10965 10967 10969 10972 10976 10981 10985 10985 10982 10981 10982 10983 10982 10980 10978 10982 10979 10979 10988 10984 10980 10982 10979 10972 10968 10965 10964 10961 10958
10971 10969 10967 10966 10967 10967 10968 10968 10967 10966 10966 10967 10970 10972 10975 10977 10977 10978 10980 10982 10985 10986 10986 10988 10988 10989 10988 10988 10987 10985 10982 10985 11004 10979 10994 10987 10987 10982 10977 10974 10973 10970 10966
10976 10975 10974 10973 10973 10974 10974 10975 10976 10977 10975 10976 10979 10981 10983 10984 10985 10985 10987 10988 10989 10990 10992 10994 10994 10995 10996 10993 10992 10993 10993 11000 10998 10993 10995 10994 10994 10989 10985 10982 10981 10979 10976
10980 10980 10980 10980 10980 10980 10980 10980 10981 10982 10982 10984 10985 10987 10989 10990 10990 10991 10993 10994 10994 10995 10997 10999 11001 11002 11001 11001 10998 10999 11001 11003 11003 10998 10997 11002 10998 10994 10990 10989 10987 10986 10984
10984 10984 10985 10985 10987 10987 10987 10987 10987 10988 10988 10989 10990 10993 10994 10996 10996 10997 10998 10999 11000 11002 11003 11005 11007 11008 11008 11008 11006 11005 11005 11004 11004 11006 11008 11006 11002 10999 10995 10994 10993 10992 10990